Weather History for KFST - October, 2011

Change the Weather History Date:

Tuesday, October 18, 2011

  Actual Average Record
Temperature  
Mean Temperature 57 °F -  
Max Temperature 68 °F 76 °F 93 °F (2001)
Min Temperature 48 °F 52 °F 39 °F (1999)
Degree Days  
Heating Degree Days 8    
Growing Degree Days 7 (Base 50)    
Moisture  
Dew Point 33 °F    
Average Humidity 40    
Maximum Humidity 61    
Minimum Humidity 21    
Precipitation  
Precipitation 0.00 in - - ()
Sea Level Pressure  
Sea Level Pressure 30.13 in    
Wind  
Wind Speed 9 mph (North)    
Max Wind Speed 15 mph    
Max Gust Speed 25 mph    
Visibility 10 miles    
Events      
Averages and records for this station are not official NWS values.
T = Trace of Precipitation, MM = Missing Value Source: NWS Daily Summary

Daily Weather History Graph

Daily Weather History Graph

Search for Another Location

Airport or City:

Trip Planner

Search our weather history database for the weather conditions in past years. The results will help you decide how hot, cold, wet, or windy it might be!

Date:

Astronomy

Oct. 18, 2011 Rise Set
Actual Time 7:56 AM CDT 7:17 PM CDT
Civil Twilight 7:31 AM CDT 7:41 PM CDT
Nautical Twilight 7:03 AM CDT 8:09 PM CDT
Astronomical Twilight 6:35 AM CDT 8:37 PM CDT
Moon No Moon Rise 1:34 PM CDT (10/18)
Length of Visible Light 12h 09m
Length of Day
11h 20m
Waning Gibbous, 64% of the Moon is Illuminated
Oct 18
Waning Gibbous
Oct 19
Last Quarter
Oct 26
New
Nov 2
First Quarter
Nov 10
Full

Hourly Weather History & Observations

Time (CDT) Temp. Dew Point Humidity Pressure Visibility Wind Dir Wind Speed Gust Speed Precip Events Conditions
12:53 AM 66.0 °F 37.9 °F 36% 29.95 in 5.0 mi North 10.4 mph - N/A   Haze
1:43 AM 62.6 °F 37.4 °F 39% 30.13 in 10.0 mi North 8.1 mph - N/A   Overcast
1:53 AM 63.0 °F 37.9 °F 40% 29.99 in 10.0 mi North 10.4 mph - N/A   Overcast
2:53 AM 60.1 °F 37.9 °F 44% 30.03 in 10.0 mi North 12.7 mph - N/A   Overcast
3:53 AM 57.0 °F 37.9 °F 49% 30.05 in 10.0 mi NNW 6.9 mph - N/A   Clear
4:53 AM 54.0 °F 37.0 °F 53% 30.06 in 10.0 mi North 4.6 mph - N/A   Clear
5:53 AM 53.1 °F 37.9 °F 57% 30.09 in 10.0 mi North 10.4 mph - N/A   Clear
6:53 AM 51.1 °F 37.0 °F 59% 30.12 in 10.0 mi North 10.4 mph - N/A   Clear
7:53 AM 48.9 °F 36.0 °F 61% 30.16 in 10.0 mi North 6.9 mph - N/A   Clear
8:53 AM 50.0 °F 37.0 °F 61% 30.20 in 10.0 mi North 8.1 mph - N/A   Clear
9:53 AM 53.1 °F 37.0 °F 55% 30.23 in 10.0 mi North 12.7 mph - N/A   Clear
10:53 AM 55.9 °F 37.0 °F 49% 30.23 in 10.0 mi North 10.4 mph - N/A   Partly Cloudy
12:53 PM 62.1 °F 36.0 °F 38% 30.19 in 10.0 mi NNW 13.8 mph 20.7 mph N/A   Clear
1:53 PM 64.0 °F 33.1 °F 31% 30.17 in 10.0 mi North 13.8 mph 25.3 mph N/A   Clear
2:53 PM 64.9 °F 32.0 °F 29% 30.15 in 10.0 mi NNW 15.0 mph 25.3 mph N/A   Clear
4:53 PM 66.9 °F 28.9 °F 24% 30.13 in 10.0 mi North 8.1 mph 18.4 mph N/A   Clear
5:53 PM 66.9 °F 25.0 °F 21% 30.12 in 10.0 mi NNW 9.2 mph 20.7 mph N/A   Clear
6:53 PM 64.9 °F 24.1 °F 21% 30.14 in 10.0 mi NNE 11.5 mph - N/A   Clear
7:53 PM 60.1 °F 24.1 °F 25% 30.17 in 10.0 mi NNE 5.8 mph - N/A   Clear
8:53 PM 59.0 °F 24.1 °F 26% 30.18 in 10.0 mi Calm Calm - N/A   Clear
9:53 PM 57.0 °F 24.1 °F 28% 30.19 in 10.0 mi NNE 3.5 mph - N/A   Clear